Location: Congrier
(47.8099°N, 1.1170°W)
Time: 12:03:44
(UTC+00:00)

PSLV R/B - Pass Details

Date: 28 January 2023
Orbit: 491 x 557 km, 97.8° (Epoch: 24 March)

Event Time Altitude Azimuth Distance (km) Brightness Sun altitude
Rises 18:38:16 0° 164° (SSE) 2,557 7.2 -16.8°
Reaches altitude 10° 18:40:19 10° 164° (SSE) 1,682 6.2 -17.1°
Maximum altitude 18:43:56 86° 80° (E) 503 3.5 -17.7°
Drops below altitude 10° 18:47:37 10° 347° (NNW) 1,714 6.4 -18.3°
Sets 18:49:40 0° 347° (NNW) 2,590 7.3 -18.7°
